This is the latest recevied weather packets stored in our database for station/object KO4DYK. If no packets are shown the sender has not sent any weather packets the latest 10 day(s).
| Time | Temp. | Humidity | Pressure | Rain* | Wind** | Luminosity | Snow |
|---|---|---|---|---|---|---|---|
| 1788382174 | 38.33° C | 43% | 1017 hPa | 0 mm | - | 298 W/m² | - |
| 1788381873 | 37.22° C | 44% | 1017 hPa | 0 mm | - | 234 W/m² | - |
| 1788381569 | 36.11° C | 50% | 1017.1 hPa | 0 mm | - | 542 W/m² | - |
| 1788381264 | 36.11° C | 55% | 1017.2 hPa | 0 mm | - | 558 W/m² | - |
| 1788380963 | 35.56° C | 59% | 1017.4 hPa | 0 mm | - | 533 W/m² | - |
| 1788380659 | 36.11° C | 57% | 1017.5 hPa | 0 mm | - | 115 W/m² | - |
| 1788380357 | 36.67° C | 57% | 1017.5 hPa | 0 mm | - | 108 W/m² | - |
| 1788380056 | 36.67° C | 53% | 1017.7 hPa | 0 mm | - | 131 W/m² | - |
| 1788379751 | 37.78° C | 45% | 1017.6 hPa | 0 mm | - | 111 W/m² | - |
| 1788379447 | 37.78° C | 43% | 1017.6 hPa | 0 mm | - | 112 W/m² | - |
| 1788379141 | 38.33° C | 43% | 1017.6 hPa | 0 mm | - | 121 W/m² | - |
| 1788378836 | 37.78° C | 44% | 1017.9 hPa | 0 mm | - | 433 W/m² | - |
| 1788378531 | 37.78° C | 43% | 1017.9 hPa | 0 mm | - | 141 W/m² | - |
| 1788378230 | 38.33° C | 43% | 1017.8 hPa | 0 mm | - | 680 W/m² | - |
| 1788377925 | 36.11° C | 50% | 1018 hPa | 0 mm | - | 661 W/m² | - |
| 1788377622 | 35.56° C | 53% | 1018.1 hPa | 0 mm | - | 720 W/m² | - |
| 1788377320 | 35.56° C | 61% | 1018.1 hPa | 0 mm | - | 410 W/m² | - |
| 1788377019 | 36.11° C | 50% | 1018.1 hPa | 0 mm | - | 140 W/m² | - |
| 1788376719 | 37.78° C | 52% | 1018.3 hPa | 0 mm | - | 191 W/m² | - |
| 1788376414 | 36.67° C | 48% | 1018.4 hPa | 0 mm | - | 151 W/m² | - |
| 1788376109 | 35.56° C | 53% | 1018.5 hPa | 0 mm | - | 743 W/m² | - |
| 1788375808 | 36.11° C | 55% | 1018.5 hPa | 0 mm | - | 117 W/m² | - |
| 1788375505 | 36.67° C | 52% | 1018.5 hPa | 0 mm | - | 339 W/m² | - |
| 1788375200 | 36.67° C | 53% | 1018.5 hPa | 0 mm | - | 188 W/m² | - |
| 1788374896 | 36.67° C | 53% | 1018.7 hPa | 0 mm | - | 136 W/m² | - |
* Rain latest hour (hover to see other rain measurements)
** Current wind speed in m/s (hover to see current wind gust speed)